{"data":{"norad_id":63474,"epoch":"2026-05-25T03:56:04.047072Z","epoch_age_seconds":61034,"freshness":"FRESH","line1":"1 63474U 25070Q   26145.16393573  .00015386  00000+0  56718-3 0  9995","line2":"2 63474  43.0012 187.7848 0001047 310.4532  49.6228 15.27596303 64674","mean_motion":15.27596303,"eccentricity":0.0001047,"inclination_deg":43.0012,"raan_deg":187.7848,"arg_perigee_deg":310.4532,"mean_anomaly_deg":49.6228,"bstar":0.00056718,"rev_number":6467,"period_min":94.265742668533,"perigee_km":482.28191835368,"apogee_km":483.7186405,"semimajor_km":6861.1372794268,"source":"CELESTRAK","updated_at":"2026-05-25T13:38:20.007862Z"}}